Wind_Speed
2 2 3 3 2 3 3 3 3 4 4 4 5 4 5 5 5 5 5 5 5 4 4 3 3 3 4 4 5 5 5 5 4 5 5 5 5 5 4 4 3 4 4 4 4 4 5 5 5
3 3 3 3 3 4 4 4 4 4 4 5 5 5 5 6 6 6 6 6 5 5 5 4 4 4 5 5 6 6 6 6 5 6 5 5 6 5 5 5 5 5 5 5 4 5 5 6 6
4 4 4 4 4 4 4 4 4 4 5 5 5 6 5 5 5 6 6 6 6 6 6 6 5 5 6 6 7 7 7 7 6 6 6 6 6 6 6 6 6 6 6 5 5 6 6 6 6
5 5 4 5 5 5 4 5 5 5 5 5 5 5 5 6 5 5 5 5 6 6 6 6 6 7 7 7 7 7 8 7 7 7 6 6 6 6 7 7 7 7 7 7 7 7 7 7 7
5 5 5 5 5 5 5 5 5 6 5 6 6 6 6 6 6 6 6 5 5 6 6 6 6 6 7 7 8 8 8 8 7 6 6 6 7 7 7 8 8 8 8 9 9 8 8 7 7
6 6 5 5 6 6 6 6 6 7 7 7 7 7 7 7 7 7 6 6 6 6 6 6 7 7 7 7 8 8 8 8 7 7 7 8 7 7 8 8 9 9 9 9 9 9 8 8 9
6 6 6 6 6 7 6 6 7 7 8 8 8 9 8 8 8 7 7 7 7 7 7 7 7 7 8 8 7 7 8 8 8 8 9 9 8 9 9 9 9 9 9 9 9 9 9 9 10
6 6 6 6 6 7 7 7 7 7 7 7 7 8 8 8 8 8 8 8 8 7 7 7 7 8 7 7 7 7 7 7 8 8 9 8 9 9 9 9 9 9 9 8 8 9 9 10 10
7 6 6 6 6 6 6 6 6 6 6 6 7 8 8 8 8 8 8 8 7 8 7 7 7 8 8 7 7 7 7 7 8 8 9 9 9 9 9 9 9 9 9 8 8 8 8 9 10
7 7 6 6 6 6 6 6 6 6 6 6 7 8 8 8 8 8 7 7 7 7 8 8 8 8 8 8 7 8 7 7 8 8 8 9 9 9 9 9 9 9 9 8 9 8 9 10 9
6 6 6 6 6 6 6 6 6 5 5 6 6 7 8 8 8 7 7 7 8 8 8 8 8 8 8 7 7 7 7 7 7 7 7 7 8 8 8 8 8 8 8 9 10 10 10 10 11
6 6 6 6 6 6 6 6 6 5 6 6 6 7 7 8 8 7 7 7 8 7 7 7 8 7 7 7 7 6 6 6 7 7 6 6 7 8 7 7 8 8 9 9 10 10 10 10 10
5 5 5 5 6 6 6 6 6 6 6 6 6 7 7 7 7 7 7 7 7 7 7 7 7 7 7 7 7 6 5 6 6 7 7 7 7 7 7 7 7 8 8 9 9 10 10 10 10
5 5 5 5 6 6 7 7 7 6 6 7 7 6 7 7 7 7 7 7 7 7 7 7 7 7 7 7 7 7 7 7 7 7 8 9 8 8 8 8 8 8 8 8 8 9 9 9 9
5 5 5 5 6 6 6 6 6 6 6 6 6 6 7 7 7 7 7 7 7 7 8 8 8 8 8 8 8 8 8 8 7 7 7 7 7 8 8 8 8 9 8 8 9 9 9 8 9
4 5 5 5 5 5 5 6 6 6 6 6 6 6 6 7 7 8 8 8 8 8 8 9 9 9 9 9 8 9 9 8 8 7 7 7 7 7 8 8 9 9 9 10 10 10 10 9 9
4 4 5 5 6 6 6 6 6 6 6 5 6 6 5 6 7 8 9 9 9 9 10 10 10 10 9 9 9 9 9 8 8 8 7 8 8 8 8 8 9 9 9 9 10 10 9 9 10
4 5 5 6 6 6 6 6 6 7 6 5 5 5 5 6 7 8 9 10 10 10 10 11 11 11 10 10 10 10 9 9 9 9 9 9 9 9 9 9 9 9 9 9 10 10 10 10 10
5 5 5 5 6 5 5 5 5 6 6 6 6 6 6 6 7 8 9 9 10 11 11 10 10 10 10 10 10 10 10 10 11 10 10 10 11 10 10 10 9 9 10 10 10 10 10 10 10
5 5 6 6 6 6 6 6 6 7 7 7 7 7 7 7 8 9 9 9 10 10 10 10 10 11 11 11 11 11 11 11 11 10 10 11 11 11 10 10 10 10 10 10 10 10 10 10 10
6 6 6 6 6 7 7 7 7 7 8 8 8 8 8 9 9 10 10 11 11 11 11 11 11 11 11 12 11 11 11 11 11 11 11 11 11 11 10 10 11 11 11 10 11 11 11 10 10
7 7 6 6 7 7 7 7 8 7 8 8 9 9 9 10 10 10 11 11 11 11 10 11 11 12 12 12 11 11 11 11 12 12 11 11 11 12 11 11 11 11 12 12 12 11 11 12 12
8 7 7 7 7 7 8 8 8 8 8 9 9 10 10 10 10 11 11 11 11 10 10 11 11 11 12 12 12 11 12 12 13 13 13 13 13 13 12 12 12 12 12 13 13 13 13 13 13
8 8 7 7 7 8 8 8 9 8 8 9 9 10 10 10 10 11 10 10 10 11 11 11 11 11 12 12 12 12 13 14 14 14 14 15 15 15 15 14 14 14 14 14 14 14 14 14 14
8 8 7 7 8 8 8 8 9 9 9 9 9 10 10 10 10 10 10 10 11 11 11 11 11 12 12 13 13 14 14 15 15 16 16 16 17 17 17 16 16 15 15 16 15 15 15 15 15
8 8 8 9 8 8 8 9 9 9 10 10 10 10 11 11 11 11 12 12 12 13 13 12 13 13 14 14 15 15 16 16 17 17 17 17 18 18 18 18 17 17 17 17 17 16 16 16 16
9 9 8 9 9 9 9 10 10 10 10 11 11 11 12 12 12 12 12 13 13 14 14 14 14 15 15 16 17 17 17 17 17 18 18 18 18 19 20 20 19 19 19 18 18 18 18 18 18
8 9 9 10 10 10 10 10 11 11 11 12 12 12 12 13 13 13 13 14 14 15 15 16 16 17 17 17 18 18 18 18 18 18 18 18 19 19 20 20 20 20 20 20 20 19 19 19 19
10 10 10 11 12 11 11 11 12 11 12 12 12 13 13 13 14 14 15 15 16 16 17 17 18 18 19 19 19 19 19 19 19 19 19 19 19 19 18 19 20 21 21 21 21 21 20 20 20
11 12 12 12 13 13 13 12 12 12 12 12 13 14 14 15 15 16 16 17 17 18 18 18 19 20 20 21 21 20 20 20 20 20 20 20 20 20 20 20 20 21 21 22 22 22 22 22 22
Wind_Direction
257 251 259 259 259 257 273 266 256 244 236 233 236 232 233 234 239 243 245 240 243 241 235 235 232 249 257 260 258 257 260 264 259 257 259 253 241 239 239 244 250 254 254 252 253 251 251 253 250
251 250 254 253 258 271 274 268 259 248 243 242 239 239 239 237 241 244 245 242 246 244 238 238 247 258 262 265 262 262 262 260 257 254 254 253 246 243 245 246 251 253 253 253 254 254 253 257 256
252 245 248 250 256 267 263 251 256 259 255 253 246 244 241 240 243 245 244 247 252 251 251 252 254 258 264 263 259 260 266 262 259 260 257 252 250 251 249 252 253 253 252 253 255 256 256 257 258
253 246 254 257 257 257 257 252 262 263 258 254 253 249 246 245 246 246 249 253 256 255 254 256 263 264 266 266 263 263 265 267 261 259 254 252 249 251 253 256 254 256 255 256 256 258 258 260 263
258 254 259 261 261 257 258 260 261 261 258 256 254 253 253 246 247 247 250 251 252 256 257 258 260 263 263 268 269 267 266 267 261 250 249 253 255 254 257 258 256 258 260 260 261 260 259 260 261
255 253 254 263 266 260 259 264 261 260 259 257 251 252 251 248 248 250 251 248 249 258 261 262 267 269 267 269 271 268 265 266 260 254 252 256 258 258 261 262 262 260 260 261 261 258 258 260 261
249 248 259 266 264 258 258 262 261 262 262 259 253 247 247 249 252 253 253 253 251 255 259 262 268 272 267 268 267 264 263 266 264 260 255 257 258 259 262 263 265 262 261 262 261 260 258 262 262
251 254 262 265 260 259 261 263 263 265 263 259 251 245 246 247 251 254 258 257 253 253 256 260 264 268 266 267 268 265 266 266 266 259 258 258 259 261 263 263 266 266 265 263 261 262 261 260 260
254 256 260 261 259 259 259 262 264 266 263 257 247 245 244 247 252 256 258 256 256 255 256 259 262 261 263 266 265 266 264 263 262 261 260 262 263 265 263 261 263 265 267 265 263 265 264 263 259
255 254 254 252 253 255 258 264 268 268 267 262 252 250 247 249 254 255 253 253 256 257 259 259 259 261 262 263 266 268 265 266 264 266 268 267 265 263 262 264 265 266 266 267 269 269 268 267 264
260 252 251 250 249 251 254 259 266 268 265 261 256 255 250 252 256 255 252 251 253 259 262 259 257 259 260 261 264 265 263 267 271 274 269 268 264 262 262 261 265 268 271 271 271 274 272 268 267
263 256 251 250 250 251 254 258 261 263 264 262 259 257 255 257 257 257 256 253 254 256 257 260 261 257 258 260 260 264 264 269 275 277 273 272 271 267 263 263 267 269 274 274 274 276 274 270 267
255 250 248 250 250 250 254 256 259 262 265 267 266 259 255 258 256 256 255 254 253 254 257 258 259 259 259 260 262 270 272 278 281 277 272 272 276 271 267 269 270 273 276 277 278 277 276 271 272
254 253 252 252 253 254 254 254 260 265 268 267 267 262 256 256 256 254 253 254 254 256 256 256 258 259 264 265 268 274 276 280 284 282 276 274 274 274 273 275 274 272 276 280 280 279 276 275 276
254 255 258 258 257 257 255 253 258 264 267 266 266 264 260 254 255 254 253 253 254 257 258 260 262 261 264 271 277 276 276 281 282 282 277 271 272 275 276 273 273 273 277 280 282 278 278 277 277
261 259 263 264 260 255 257 256 260 263 260 263 265 265 260 255 254 259 259 256 258 260 261 264 264 263 267 274 279 279 278 280 282 282 279 272 271 273 278 275 274 274 275 277 280 276 275 274 275
261 257 261 262 258 255 255 259 259 263 262 262 266 270 263 259 261 263 266 266 264 264 265 266 267 266 269 273 276 279 278 279 283 284 281 276 275 275 276 277 276 277 277 276 276 276 279 278 278
257 256 257 259 262 259 259 261 261 263 264 263 270 271 269 267 267 269 269 271 270 267 266 268 268 267 269 271 274 277 276 274 277 279 279 278 276 274 276 279 277 279 281 280 280 279 279 279 279
253 253 253 258 263 264 265 264 267 265 267 263 271 276 278 278 276 275 274 274 273 273 268 267 266 266 269 270 273 276 276 275 278 280 277 275 274 272 273 276 276 278 279 279 283 284 280 279 280
251 255 257 258 260 260 263 265 267 268 271 268 272 277 278 280 280 278 277 277 276 276 273 271 271 268 270 270 272 274 277 279 279 278 276 277 276 275 276 278 278 277 277 280 282 285 284 281 280
246 253 257 258 257 258 264 269 271 271 270 269 274 278 280 279 279 276 275 277 280 276 273 273 272 272 270 269 273 275 274 276 275 274 273 275 278 278 279 279 279 278 275 276 279 281 282 282 282
247 251 255 255 259 259 265 272 277 275 276 276 276 278 282 282 279 276 277 278 277 274 274 275 275 274 274 275 274 273 272 273 274 273 271 272 276 279 279 279 280 280 278 276 277 279 281 282 283
247 251 253 255 260 263 266 271 276 273 275 279 280 282 284 284 278 275 275 277 277 275 274 275 276 276 277 278 276 273 273 275 274 272 270 268 271 273 276 277 277 277 277 278 279 280 280 281 282
247 249 252 255 262 266 268 271 273 275 277 281 284 284 285 285 282 278 279 283 281 278 275 274 276 277 277 276 276 274 274 275 275 272 270 268 268 270 272 274 276 276 276 276 277 278 279 279 280
246 246 251 258 264 273 272 271 272 276 279 281 282 284 285 286 286 284 281 282 282 280 277 274 277 279 279 278 277 278 277 276 275 273 270 267 267 268 270 273 274 275 275 275 276 277 277 279 279
248 246 247 254 261 273 274 273 276 276 277 279 281 286 287 287 286 282 282 283 283 281 279 277 277 279 280 278 277 278 278 276 276 275 273 270 268 268 268 271 273 273 273 273 274 276 278 280 279
247 245 253 260 265 269 276 279 281 282 279 279 283 286 289 288 286 285 284 282 281 280 279 277 277 279 281 281 279 278 278 279 279 279 278 277 275 273 271 271 273 273 273 273 274 276 278 280 280
256 256 260 264 268 273 281 283 285 285 283 281 283 285 287 288 287 284 283 283 281 280 278 277 277 278 280 281 281 279 280 280 279 279 278 276 276 274 272 271 270 271 274 274 275 275 275 276 277
263 263 267 270 269 272 280 284 288 289 288 288 286 286 286 287 287 285 282 282 281 281 281 279 279 279 279 279 280 280 280 279 278 278 277 277 277 275 275 274 274 273 273 275 274 272 273 274 275
269 270 271 272 273 272 277 283 287 289 289 289 288 287 286 287 286 284 282 281 281 281 282 282 281 280 279 279 279 279 280 279 277 277 277 276 277 275 277 278 276 276 275 274 275 273 273 273 273
Height
5885 5886 5886 5887 5888 5888 5888 5887 5887 5887 5887 5887 5887 5887 5887 5887 5888 5890 5887 5886 5886 5886 5886 5886 5886 5885 5885 5885 5885 5885 5885 5885 5884 5884 5884 5884 5883 5883 5882 5882 5882 5882 5882 5882 5882 5881 5881 5881 5881
5885 5885 5886 5887 5887 5887 5887 5886 5886 5886 5886 5886 5886 5886 5886 5885 5886 5886 5885 5885 5885 5885 5885 5885 5885 5884 5884 5884 5884 5884 5883 5883 5883 5883 5882 5882 5882 5882 5881 5881 5881 5881 5881 5880 5880 5880 5880 5880 5880
5884 5885 5886 5886 5886 5886 5886 5885 5885 5885 5885 5884 5884 5885 5885 5884 5884 5884 5884 5884 5884 5884 5883 5883 5883 5883 5883 5883 5883 5882 5882 5882 5882 5881 5881 5881 5881 5880 5880 5880 5880 5880 5879 5879 5879 5879 5879 5879 5879
5883 5884 5885 5885 5884 5885 5884 5884 5883 5883 5883 5883 5883 5883 5883 5883 5883 5883 5883 5883 5883 5882 5882 5882 5882 5882 5882 5881 5881 5881 5881 5880 5880 5880 5880 5880 5879 5879 5879 5879 5879 5878 5878 5878 5878 5878 5877 5877 5877
5882 5883 5884 5883 5883 5883 5883 5882 5882 5882 5882 5882 5882 5882 5882 5882 5882 5882 5881 5882 5881 5881 5881 5881 5880 5880 5880 5880 5879 5879 5879 5879 5879 5878 5878 5878 5878 5877 5877 5877 5877 5877 5876 5876 5876 5876 5876 5875 5875
5882 5882 5882 5882 5881 5882 5881 5881 5881 5881 5881 5881 5881 5881 5880 5881 5880 5880 5880 5880 5880 5880 5880 5879 5879 5879 5878 5878 5878 5877 5877 5877 5877 5877 5876 5876 5876 5876 5876 5875 5875 5875 5875 5874 5874 5874 5874 5874 5873
5881 5880 5880 5880 5880 5880 5880 5880 5879 5879 5879 5879 5879 5879 5879 5879 5879 5879 5879 5878 5878 5878 5878 5878 5878 5877 5877 5876 5876 5876 5876 5875 5875 5875 5875 5874 5874 5874 5874 5874 5873 5873 5873 5872 5872 5872 5872 5871 5871
5878 5879 5878 5878 5878 5879 5879 5878 5878 5878 5877 5877 5877 5878 5878 5878 5877 5877 5877 5877 5877 5877 5877 5876 5876 5876 5876 5875 5875 5874 5874 5874 5873 5873 5873 5873 5872 5872 5872 5872 5871 5871 5871 5870 5870 5870 5869 5869 5869
5877 5878 5877 5877 5877 5877 5877 5876 5876 5876 5876 5876 5876 5876 5876 5876 5876 5876 5876 5875 5875 5875 5875 5875 5875 5875 5874 5874 5873 5873 5872 5872 5871 5871 5871 5871 5870 5870 5870 5870 5869 5869 5869 5868 5868 5867 5867 5867 5867
5875 5875 5875 5875 5875 5875 5875 5875 5875 5875 5875 5874 5874 5875 5875 5875 5874 5874 5874 5874 5874 5874 5874 5873 5873 5873 5873 5872 5872 5871 5871 5870 5870 5870 5869 5869 5868 5868 5868 5867 5867 5867 5866 5866 5866 5865 5865 5865 5864
5872 5873 5873 5873 5873 5873 5873 5873 5873 5873 5873 5873 5873 5873 5873 5873 5873 5873 5873 5873 5873 5872 5872 5872 5872 5872 5871 5871 5870 5870 5869 5869 5868 5868 5867 5867 5867 5866 5866 5866 5865 5865 5865 5864 5864 5864 5863 5863 5862
5871 5871 5871 5871 5871 5871 5871 5872 5872 5872 5872 5872 5872 5871 5871 5871 5872 5871 5871 5871 5871 5871 5871 5871 5871 5870 5870 5869 5869 5868 5868 5867 5867 5866 5866 5865 5865 5865 5864 5864 5863 5863 5863 5862 5862 5861 5861 5860 5860
5869 5869 5869 5869 5869 5870 5870 5870 5870 5870 5870 5870 5870 5870 5870 5870 5870 5870 5870 5870 5870 5870 5869 5869 5869 5869 5869 5868 5868 5867 5867 5866 5866 5865 5864 5864 5863 5863 5863 5862 5861 5861 5861 5860 5860 5859 5859 5858 5858
5868 5868 5868 5868 5868 5868 5869 5869 5869 5869 5869 5869 5869 5869 5868 5868 5868 5868 5868 5868 5868 5868 5868 5868 5868 5868 5867 5867 5866 5866 5865 5865 5864 5863 5863 5862 5862 5861 5861 5860 5860 5860 5859 5858 5858 5857 5857 5856 5856
5866 5867 5867 5867 5866 5867 5867 5868 5868 5867 5867 5867 5867 5867 5867 5867 5867 5867 5867 5867 5867 5867 5867 5867 5866 5866 5866 5865 5865 5864 5864 5863 5862 5862 5861 5860 5860 5859 5859 5859 5858 5858 5857 5857 5856 5855 5855 5854 5854
5865 5866 5866 5866 5865 5865 5867 5867 5866 5866 5866 5866 5866 5865 5865 5865 5865 5865 5865 5865 5865 5865 5865 5865 5865 5864 5864 5864 5863 5863 5862 5861 5861 5860 5859 5859 5858 5857 5857 5857 5856 5856 5855 5855 5854 5853 5853 5852 5852
5864 5864 5864 5865 5864 5864 5865 5865 5865 5864 5864 5864 5864 5864 5864 5864 5864 5863 5863 5863 5863 5863 5863 5863 5863 5862 5862 5862 5861 5861 5860 5860 5859 5858 5858 5857 5856 5856 5855 5855 5854 5854 5853 5853 5852 5851 5851 5850 5850
5863 5863 5863 5862 5862 5862 5862 5863 5863 5863 5863 5863 5863 5863 5862 5862 5862 5862 5861 5861 5861 5861 5861 5861 5860 5860 5860 5859 5859 5858 5858 5858 5857 5856 5856 5855 5854 5854 5853 5853 5852 5851 5851 5850 5850 5849 5848 5848 5847
5861 5861 5861 5861 5860 5861 5861 5861 5861 5861 5861 5861 5861 5861 5861 5861 5860 5860 5859 5859 5858 5858 5858 5858 5858 5858 5857 5857 5857 5856 5856 5855 5855 5854 5853 5853 5852 5852 5851 5850 5850 5849 5849 5848 5847 5847 5846 5845 5845
5859 5859 5859 5859 5859 5859 5859 5860 5860 5860 5859 5859 5859 5859 5859 5859 5858 5858 5857 5856 5856 5856 5855 5855 5855 5855 5855 5854 5854 5854 5853 5853 5852 5851 5851 5850 5850 5849 5848 5848 5847 5847 5846 5846 5845 5844 5844 5843 5842
5857 5858 5858 5858 5858 5857 5858 5858 5858 5858 5858 5858 5858 5857 5857 5857 5856 5855 5855 5854 5853 5853 5853 5853 5853 5852 5852 5851 5851 5851 5850 5850 5849 5849 5848 5847 5847 5846 5846 5845 5844 5844 5843 5843 5842 5842 5841 5840 5840
5855 5856 5856 5856 5856 5856 5857 5857 5856 5856 5856 5856 5855 5855 5855 5854 5853 5853 5852 5851 5851 5850 5850 5850 5850 5849 5849 5848 5848 5848 5847 5847 5846 5846 5845 5845 5844 5843 5843 5842 5842 5841 5840 5840 5839 5839 5838 5838 5837
5853 5854 5854 5854 5854 5854 5854 5854 5855 5854 5854 5854 5853 5852 5852 5851 5851 5850 5849 5849 5848 5848 5848 5847 5847 5846 5846 5845 5845 5845 5844 5844 5843 5842 5842 5841 5841 5840 5839 5839 5838 5838 5837 5837 5836 5835 5835 5834 5833
5851 5852 5852 5852 5852 5852 5852 5852 5852 5851 5851 5851 5851 5850 5849 5849 5848 5847 5847 5846 5845 5845 5845 5844 5844 5843 5843 5842 5842 5841 5841 5840 5839 5838 5838 5837 5837 5836 5836 5835 5835 5834 5834 5833 5832 5832 5831 5830 5830
5848 5850 5850 5850 5850 5850 5849 5849 5850 5849 5849 5848 5848 5847 5847 5846 5845 5845 5844 5843 5843 5842 5842 5841 5841 5840 5839 5839 5838 5837 5837 5836 5835 5834 5833 5833 5833 5832 5832 5831 5831 5830 5829 5829 5828 5828 5827 5826 5825
5845 5847 5848 5848 5848 5848 5847 5846 5847 5846 5846 5845 5845 5844 5844 5843 5842 5842 5841 5840 5840 5839 5838 5838 5837 5836 5835 5835 5834 5833 5832 5831 5830 5829 5829 5828 5828 5827 5827 5826 5826 5825 5825 5824 5824 5823 5822 5821 5820
5843 5843 5844 5845 5845 5845 5844 5844 5844 5843 5843 5842 5842 5841 5840 5840 5839 5838 5837 5837 5836 5835 5835 5834 5833 5832 5831 5830 5829 5828 5828 5827 5826 5825 5824 5823 5822 5822 5822 5821 5821 5820 5820 5819 5819 5818 5817 5816 5816
5841 5841 5842 5842 5842 5842 5842 5841 5841 5840 5839 5839 5839 5838 5837 5836 5835 5834 5834 5833 5832 5831 5831 5830 5829 5828 5827 5826 5825 5823 5823 5822 5821 5820 5819 5818 5817 5816 5816 5815 5815 5815 5814 5814 5813 5812 5812 5811 5810
5838 5838 5838 5838 5839 5839 5839 5841 5838 5837 5836 5836 5835 5834 5833 5832 5831 5830 5829 5829 5828 5827 5826 5825 5824 5823 5822 5821 5819 5818 5817 5816 5816 5815 5814 5813 5812 5811 5810 5809 5809 5809 5808 5808 5807 5806 5806 5805 5804
5834 5835 5835 5836 5835 5835 5835 5838 5834 5833 5832 5831 5831 5830 5829 5828 5827 5826 5825 5824 5823 5822 5821 5820 5818 5817 5816 5815 5814 5813 5812 5811 5810 5809 5808 5807 5806 5805 5804 5804 5803 5802 5802 5801 5800 5800 5799 5799 5798